When you browse on this site, cookies collect data to enhance your experience and personalize the content and advertising you see.
Visit our Privacy Policy to learn more. By continuing to use the site, you agree to this use of cookies and data.

Hourly Weather Corozal

Today, 9 August, Sunday

Time Temperature Precipitation Wind Pressure Humidity
00:00 +27°C° 0 mm 2 mps 761 mmHg 93%
01:00 +27°C° 0 mm 2 mps 760 mmHg 93%
02:00 +27°C° 0 mm 2 mps 760 mmHg 94%
03:00 +27°C° 0 mm 2 mps 760 mmHg 94%
04:00 +27°C° 0.1 mm 2 mps 760 mmHg 94%
05:00 +27°C° 0.1 mm 2 mps 760 mmHg 95%
06:00 +27°C° 0.1 mm 2 mps 760 mmHg 95%
07:00 +28°C° 0.5 mm 2 mps 760 mmHg 91%
08:00 +29°C° 0.5 mm 2 mps 761 mmHg 87%
09:00 +31°C° 0.5 mm 3 mps 761 mmHg 83%
10:00 +31°C° 1.2 mm 3 mps 761 mmHg 83%
11:00 +31°C° 1.2 mm 3 mps 761 mmHg 82%
12:00 +31°C° 1.2 mm 3 mps 761 mmHg 81%
13:00 +31°C° 1.2 mm 3 mps 760 mmHg 83%
14:00 +31°C° 1.2 mm 3 mps 760 mmHg 84%
15:00 +31°C° 1.2 mm 3 mps 759 mmHg 85%
16:00 +30°C° 0.7 mm 3 mps 759 mmHg 87%
17:00 +29°C° 0.7 mm 2 mps 759 mmHg 90%
18:00 +28°C° 0.7 mm 2 mps 759 mmHg 92%
19:00 +28°C° 0 mm 2 mps 760 mmHg 93%
20:00 +27°C° 0 mm 2 mps 760 mmHg 94%
21:00 +27°C° 0 mm 2 mps 761 mmHg 95%
22:00 +27°C° 0 mm 2 mps 761 mmHg 95%
23:00 +27°C° 0 mm 2 mps 761 mmHg 95%

Tomorrow, 10 August, Monday

Time Temperature Precipitation Wind Pressure Humidity
00:00 +27°C° 0 mm 2 mps 761 mmHg 95%
01:00 +27°C° 0 mm 2 mps 760 mmHg 95%
02:00 +27°C° 0 mm 2 mps 759 mmHg 95%
03:00 +27°C° 0 mm 2 mps 759 mmHg 95%
04:00 +27°C° 0 mm 2 mps 759 mmHg 95%
05:00 +27°C° 0 mm 2 mps 759 mmHg 95%
06:00 +27°C° 0 mm 2 mps 759 mmHg 95%
07:00 +29°C° 0.2 mm 2 mps 759 mmHg 90%
08:00 +30°C° 0.2 mm 3 mps 760 mmHg 85%
09:00 +31°C° 0.2 mm 3 mps 760 mmHg 80%
10:00 +33°C° 0.7 mm 3 mps 760 mmHg 79%
11:00 +33°C° 0.7 mm 4 mps 760 mmHg 78%
12:00 +33°C° 0.7 mm 4 mps 760 mmHg 77%
13:00 +33°C° 1.8 mm 3 mps 759 mmHg 76%
14:00 +33°C° 1.8 mm 3 mps 759 mmHg 75%
15:00 +33°C° 1.8 mm 3 mps 758 mmHg 75%
16:00 +31°C° 0.5 mm 3 mps 758 mmHg 81%
17:00 +30°C° 0.5 mm 2 mps 758 mmHg 86%
18:00 +29°C° 0.5 mm 2 mps 758 mmHg 92%
19:00 +28°C° 0 mm 2 mps 759 mmHg 93%
20:00 +28°C° 0 mm 2 mps 759 mmHg 94%
21:00 +27°C° 0 mm 2 mps 759 mmHg 95%
22:00 +27°C° 0 mm 2 mps 759 mmHg 95%
23:00 +27°C° 0 mm 2 mps 759 mmHg 96%

Day after tomorrow, 11 August, Tuesday

Time Temperature Precipitation Wind Pressure Humidity
00:00 +27°C° 0 mm 2 mps 759 mmHg 96%
01:00 +27°C° 0 mm 2 mps 759 mmHg 96%
02:00 +27°C° 0 mm 2 mps 758 mmHg 97%
03:00 +27°C° 0 mm 1 mps 758 mmHg 97%
04:00 +27°C° 0 mm 1 mps 758 mmHg 97%
05:00 +27°C° 0 mm 1 mps 758 mmHg 96%
06:00 +27°C° 0 mm 1 mps 758 mmHg 96%
07:00 +28°C° 0 mm 1 mps 758 mmHg 88%
08:00 +30°C° 0 mm 1 mps 759 mmHg 81%
09:00 +32°C° 0 mm 2 mps 759 mmHg 73%
10:00 +32°C° 0.7 mm 2 mps 759 mmHg 74%
11:00 +32°C° 0.7 mm 2 mps 759 mmHg 75%
12:00 +32°C° 0.7 mm 2 mps 759 mmHg 76%
13:00 +34°C° 0.1 mm 2 mps 758 mmHg 70%
14:00 +35°C° 0.1 mm 2 mps 757 mmHg 64%
15:00 +35°C° 0.1 mm 3 mps 757 mmHg 58%
16:00 +34°C° 0.1 mm 3 mps 757 mmHg 67%
17:00 +31°C° 0.1 mm 3 mps 757 mmHg 75%
18:00 +29°C° 0.1 mm 3 mps 757 mmHg 83%
19:00 +29°C° 0 mm 2 mps 758 mmHg 86%
20:00 +28°C° 0 mm 2 mps 758 mmHg 90%
21:00 +27°C° 0 mm 2 mps 759 mmHg 93%
22:00 +27°C° 0 mm 2 mps 759 mmHg 94%
23:00 +27°C° 0 mm 2 mps 758 mmHg 95%

12 August, Wednesday

Time Temperature Precipitation Wind Pressure Humidity
00:00 +27°C° 0 mm 2 mps 758 mmHg 96%
01:00 +27°C° 0 mm 1 mps 758 mmHg 96%
02:00 +27°C° 0 mm 1 mps 758 mmHg 96%
03:00 +26°C° 0 mm 1 mps 757 mmHg 96%
04:00 +26°C° 0.1 mm 1 mps 757 mmHg 96%
05:00 +26°C° 0.1 mm 1 mps 758 mmHg 96%
06:00 +26°C° 0.1 mm 2 mps 758 mmHg 97%
07:00 +28°C° 0.1 mm 2 mps 758 mmHg 88%
08:00 +30°C° 0.1 mm 3 mps 758 mmHg 80%
09:00 +33°C° 0.1 mm 3 mps 759 mmHg 71%
10:00 +34°C° 0 mm 3 mps 759 mmHg 66%
11:00 +35°C° 0 mm 3 mps 758 mmHg 60%
12:00 +36°C° 0 mm 3 mps 758 mmHg 54%
13:00 +35°C° 0.4 mm 3 mps 758 mmHg 59%
14:00 +34°C° 0.4 mm 3 mps 757 mmHg 63%
15:00 +34°C° 0.4 mm 3 mps 757 mmHg 68%
16:00 +31°C° 0.2 mm 3 mps 757 mmHg 73%
17:00 +30°C° 0.2 mm 3 mps 757 mmHg 79%
18:00 +29°C° 0.2 mm 2 mps 757 mmHg 84%
19:00 +28°C° 0 mm 2 mps 758 mmHg 87%
20:00 +28°C° 0 mm 2 mps 758 mmHg 91%
21:00 +27°C° 0 mm 2 mps 759 mmHg 94%
22:00 +27°C° 0 mm 2 mps 758 mmHg 94%
23:00 +27°C° 0 mm 1 mps 758 mmHg 95%

13 August, Thursday

Time Temperature Precipitation Wind Pressure Humidity
00:00 +26°C° 0 mm 1 mps 758 mmHg 95%
01:00 +26°C° 0 mm 1 mps 758 mmHg 95%
02:00 +26°C° 0 mm 1 mps 758 mmHg 95%
03:00 +26°C° 0 mm 1 mps 757 mmHg 96%
04:00 +26°C° 0.6 mm 1 mps 758 mmHg 96%
05:00 +26°C° 0.6 mm 1 mps 758 mmHg 97%
06:00 +26°C° 0.6 mm 2 mps 758 mmHg 97%
07:00 +27°C° 1.7 mm 2 mps 758 mmHg 94%
08:00 +28°C° 1.7 mm 2 mps 759 mmHg 91%
09:00 +29°C° 1.7 mm 2 mps 759 mmHg 88%
10:00 +30°C° 1 mm 2 mps 759 mmHg 87%
11:00 +30°C° 1 mm 2 mps 758 mmHg 86%
12:00 +31°C° 1 mm 3 mps 758 mmHg 84%
13:00 +31°C° 0.2 mm 2 mps 758 mmHg 79%
14:00 +32°C° 0.2 mm 2 mps 757 mmHg 74%
15:00 +32°C° 0.2 mm 2 mps 757 mmHg 69%
16:00 +31°C° 0 mm 2 mps 757 mmHg 74%
17:00 +30°C° 0 mm 2 mps 757 mmHg 78%
18:00 +29°C° 0 mm 2 mps 757 mmHg 82%
19:00 +28°C° 0 mm 2 mps 758 mmHg 85%
20:00 +27°C° 0 mm 1 mps 758 mmHg 88%
21:00 +27°C° 0 mm 1 mps 759 mmHg 92%
22:00 +26°C° 0 mm 1 mps 759 mmHg 92%
23:00 +26°C° 0 mm 1 mps 758 mmHg 93%

14 August, Friday

Time Temperature Precipitation Wind Pressure Humidity
00:00 +26°C° 0 mm 1 mps 758 mmHg 94%
01:00 +26°C° 0 mm 1 mps 758 mmHg 94%
02:00 +26°C° 0 mm 1 mps 758 mmHg 94%
03:00 +26°C° 0 mm 1 mps 757 mmHg 95%
04:00 +26°C° 0.1 mm 1 mps 757 mmHg 95%
05:00 +26°C° 0.1 mm 1 mps 758 mmHg 95%
06:00 +24°C° 0.1 mm 0 mps 758 mmHg 95%
07:00 +28°C° 0 mm 1 mps 758 mmHg 86%
08:00 +30°C° 0 mm 1 mps 758 mmHg 77%
09:00 +32°C° 0 mm 2 mps 759 mmHg 68%
10:00 +32°C° 0 mm 2 mps 758 mmHg 65%
11:00 +34°C° 0 mm 2 mps 758 mmHg 61%
12:00 +35°C° 0 mm 2 mps 758 mmHg 57%
13:00 +35°C° 0 mm 2 mps 757 mmHg 55%
14:00 +35°C° 0 mm 3 mps 757 mmHg 53%
15:00 +35°C° 0 mm 3 mps 756 mmHg 51%
16:00 +33°C° 0 mm 3 mps 756 mmHg 59%
17:00 +31°C° 0 mm 3 mps 756 mmHg 68%
18:00 +29°C° 0 mm 2 mps 757 mmHg 76%
19:00 +28°C° 0 mm 2 mps 757 mmHg 81%
20:00 +27°C° 0 mm 2 mps 758 mmHg 85%
21:00 +26°C° 0 mm 2 mps 758 mmHg 90%
22:00 +26°C° 0.1 mm 1 mps 758 mmHg 90%
23:00 +26°C° 0.1 mm 1 mps 758 mmHg 91%
Show more